Weather History for Rugby, ND

Change the Weather History Date:

Friday, November 23, 2012

  Actual Average Record
Temperature  
Mean Temperature 4 °F -  
Max Temperature 8 °F 26 °F 51 °F (1984)
Min Temperature 0 °F 13 °F -18 °F (2013)
Degree Days  
Heating Degree Days 61    
Moisture  
Dew Point -1 °F    
Average Humidity 82    
Maximum Humidity 92    
Minimum Humidity 67    
Precipitation  
Precipitation 0.00 in - - ()
Sea Level Pressure  
Sea Level Pressure 30.41 in    
Wind  
Wind Speed 13 mph (NW)    
Max Wind Speed 21 mph    
Max Gust Speed 29 mph    
Visibility 10 miles    
Events      
Averages and records for this station are not official NWS values.
T = Trace of Precipitation, MM = Missing Value Source: NWS Daily Summary

Daily Weather History Graph

Daily Weather History Graph

Search for Another Location

Airport:

Trip Planner

Search our weather history database for the weather conditions in past years. The results will help you decide how hot, cold, wet, or windy it might be!

Date:

Astronomy

Nov. 23, 2012 Rise Set
Actual Time 8:00 AM CST 4:52 PM CST
Civil Twilight 7:25 AM CST 5:27 PM CST
Nautical Twilight 6:46 AM CST 6:06 PM CST
Astronomical Twilight 6:09 AM CST 6:43 PM CST
Moon 2:24 PM CST (11/23) 3:02 AM CST (11/23)
Length of Visible Light 10h 02m
Length of Day
8h 52m
Waxing Gibbous, 80% of the Moon is Illuminated
Nov 23
Waxing Gibbous
Nov 28
Full
Dec 6
Last Quarter
Dec 13
New
Dec 19
First Quarter

Hourly Weather History & Observations

Time (CST) Temp. Windchill Dew Point Humidity Pressure Visibility Wind Dir Wind Speed Gust Speed Precip Events Conditions
12:15 AM 6.8 °F -11.8 °F 1.4 °F 79% 30.39 in 10.0 mi NW 17.3 mph 28.8 mph N/A   Clear
12:35 AM 6.8 °F -12.9 °F 1.4 °F 79% 30.40 in 10.0 mi NW 19.6 mph 24.2 mph N/A   Clear
12:55 AM 6.8 °F -12.9 °F 1.4 °F 79% 30.40 in 10.0 mi NW 19.6 mph 24.2 mph N/A   Clear
1:15 AM 6.8 °F -13.4 °F 1.4 °F 79% 30.40 in 10.0 mi NW 20.7 mph 26.5 mph N/A   Clear
1:35 AM 6.8 °F -12.4 °F 1.4 °F 79% 30.41 in 10.0 mi NW 18.4 mph 26.5 mph N/A   Clear
1:55 AM 6.8 °F -12.4 °F 1.4 °F 79% 30.42 in 10.0 mi NW 18.4 mph - N/A   Clear
2:15 AM 6.8 °F -12.9 °F 1.4 °F 79% 30.43 in 10.0 mi NW 19.6 mph 25.3 mph N/A   Clear
2:35 AM 6.8 °F -12.9 °F 1.4 °F 79% 30.43 in 10.0 mi NW 19.6 mph 26.5 mph N/A   Clear
2:55 AM 5.0 °F -14.7 °F -0.4 °F 78% 30.44 in 10.0 mi NW 18.4 mph 25.3 mph N/A   Clear
3:15 AM 5.0 °F -13.6 °F -0.4 °F 78% 30.45 in 10.0 mi NW 16.1 mph 25.3 mph N/A   Clear
3:35 AM 5.0 °F -14.2 °F -0.4 °F 78% 30.45 in 10.0 mi NW 17.3 mph - N/A   Clear
3:55 AM 3.2 °F -15.3 °F -0.4 °F 85% 30.45 in 10.0 mi NW 15.0 mph - N/A   Clear
4:15 AM 3.2 °F -15.3 °F -0.4 °F 85% 30.45 in 10.0 mi NW 15.0 mph 20.7 mph N/A   Clear
4:35 AM 3.2 °F -15.3 °F -0.4 °F 85% 30.45 in 10.0 mi NW 15.0 mph - N/A   Clear
4:55 AM 1.4 °F -16.9 °F -0.4 °F 92% 30.45 in 10.0 mi NW 13.8 mph - N/A   Clear
5:15 AM 1.4 °F -16.9 °F -0.4 °F 92% 30.46 in 10.0 mi NW 13.8 mph - N/A   Clear
5:35 AM 1.4 °F -16.1 °F -2.2 °F 85% 30.47 in 10.0 mi WNW 12.7 mph - N/A   Clear
5:55 AM 1.4 °F -18.8 °F -2.2 °F 85% 30.47 in 10.0 mi NW 17.3 mph 21.9 mph N/A   Clear
6:15 AM 1.4 °F -16.9 °F -2.2 °F 85% 30.47 in 10.0 mi NW 13.8 mph - N/A   Clear
6:35 AM 1.4 °F -16.1 °F -2.2 °F 85% 30.47 in 10.0 mi WNW 12.7 mph - N/A   Clear
6:55 AM -0.4 °F -17.6 °F -2.2 °F 92% 30.47 in 10.0 mi WNW 11.5 mph - N/A   Clear
7:15 AM -0.4 °F -18.4 °F -2.2 °F 92% 30.47 in 10.0 mi WNW 12.7 mph - N/A   Clear
7:35 AM -0.4 °F -16.7 °F -4.0 °F 85% 30.47 in 10.0 mi WNW 10.4 mph - N/A   Clear
7:55 AM -0.4 °F -15.7 °F -4.0 °F 85% 30.47 in 10.0 mi WNW 9.2 mph - N/A   Clear
8:15 AM -0.4 °F -14.7 °F -4.0 °F 85% 30.47 in 10.0 mi WNW 8.1 mph - N/A   Clear
8:35 AM -0.4 °F -12.0 °F -4.0 °F 85% 30.47 in 10.0 mi West 5.8 mph - N/A   Clear
8:55 AM -0.4 °F -17.6 °F -4.0 °F 85% 30.47 in 10.0 mi WNW 11.5 mph - N/A   Clear
9:15 AM -0.4 °F -16.7 °F -2.2 °F 92% 30.49 in 10.0 mi WNW 10.4 mph - N/A   Clear
9:35 AM 1.4 °F -16.9 °F -2.2 °F 85% 30.49 in 10.0 mi WNW 13.8 mph - N/A   Clear
9:55 AM 1.4 °F -15.3 °F -2.2 °F 85% 30.50 in 10.0 mi NW 11.5 mph - N/A   Clear
10:15 AM 1.4 °F -16.1 °F -2.2 °F 85% 30.49 in 10.0 mi NW 12.7 mph - N/A   Clear
10:35 AM 3.2 °F -13.1 °F -2.2 °F 78% 30.49 in 10.0 mi NW 11.5 mph - N/A   Clear
10:55 AM 3.2 °F -13.9 °F -0.4 °F 85% 30.49 in 10.0 mi NW 12.7 mph - N/A   Clear
11:15 AM 5.0 °F -13.0 °F -0.4 °F 78% 30.48 in 10.0 mi WNW 15.0 mph - N/A   Clear
11:35 AM 5.0 °F -10.8 °F -0.4 °F 78% 30.48 in 10.0 mi NW 11.5 mph - N/A   Clear
11:55 AM 5.0 °F -10.0 °F -0.4 °F 78% 30.48 in 10.0 mi WNW 10.4 mph - N/A   Clear
12:15 PM 5.0 °F -10.8 °F -0.4 °F 78% 30.47 in 10.0 mi NW 11.5 mph - N/A   Clear
12:35 PM 5.0 °F -9.1 °F -0.4 °F 78% 30.47 in 10.0 mi NW 9.2 mph - N/A   Clear
12:55 PM 6.8 °F -5.9 °F -0.4 °F 72% 30.45 in 10.0 mi NW 8.1 mph - N/A   Clear
1:15 PM 6.8 °F -6.9 °F -0.4 °F 72% 30.45 in 10.0 mi WNW 9.2 mph - N/A   Clear
1:35 PM 6.8 °F -6.9 °F -0.4 °F 72% 30.45 in 10.0 mi NW 9.2 mph - N/A   Clear
1:55 PM 6.8 °F -3.5 °F -0.4 °F 72% 30.44 in 10.0 mi NW 5.8 mph - N/A   Clear
2:15 PM 6.8 °F -4.8 °F -0.4 °F 72% 30.44 in 10.0 mi WNW 6.9 mph - N/A   Clear
2:35 PM 8.6 °F -2.6 °F -0.4 °F 67% 30.43 in 10.0 mi NW 6.9 mph - N/A   Clear
2:55 PM 6.8 °F -3.5 °F 1.4 °F 79% 30.43 in 10.0 mi NNW 5.8 mph - N/A   Clear
3:15 PM 8.6 °F -2.6 °F 1.4 °F 73% 30.42 in 10.0 mi NW 6.9 mph - N/A   Clear
3:35 PM 6.8 °F -3.5 °F -0.4 °F 72% 30.41 in 10.0 mi NNW 5.8 mph - N/A   Clear
3:55 PM 6.8 °F -3.5 °F -0.4 °F 72% 30.41 in 10.0 mi NW 5.8 mph - N/A   Clear
4:15 PM 6.8 °F -3.5 °F -0.4 °F 72% 30.41 in 10.0 mi NNW 5.8 mph - N/A   Clear
4:35 PM 5.0 °F -4.1 °F -0.4 °F 78% 30.42 in 10.0 mi NW 4.6 mph - N/A   Clear
4:55 PM 5.0 °F -2.1 °F -0.4 °F 78% 30.41 in 10.0 mi NNW 3.5 mph - N/A   Clear
5:15 PM 3.2 °F - -0.4 °F 85% 30.41 in 10.0 mi Calm Calm - N/A   Clear
5:35 PM 1.4 °F - -2.2 °F 85% 30.39 in 10.0 mi Calm Calm - N/A   Clear
5:55 PM -0.4 °F -12.0 °F -4.0 °F 85% 30.38 in 10.0 mi East 5.8 mph - N/A   Clear
6:15 PM -0.4 °F -8.3 °F -2.2 °F 92% 30.37 in 10.0 mi East 3.5 mph - N/A   Clear
6:35 PM 1.4 °F - -2.2 °F 85% 30.37 in 10.0 mi Calm Calm - N/A   Clear
6:55 PM 1.4 °F - -2.2 °F 85% 30.36 in 10.0 mi Calm Calm - N/A   Clear
7:15 PM 1.4 °F -8.3 °F -2.2 °F 85% 30.36 in 10.0 mi ESE 4.6 mph - N/A   Clear
7:35 PM -0.4 °F -14.7 °F -2.2 °F 92% 30.35 in 10.0 mi East 8.1 mph - N/A   Clear
7:55 PM -0.4 °F -12.0 °F -2.2 °F 92% 30.35 in 10.0 mi ESE 5.8 mph - N/A   Clear
8:15 PM -0.4 °F -12.0 °F -2.2 °F 92% 30.34 in 10.0 mi ESE 5.8 mph - N/A   Clear
8:35 PM -0.4 °F -13.4 °F -2.2 °F 92% 30.32 in 10.0 mi ESE 6.9 mph - N/A   Clear
8:55 PM -0.4 °F -13.4 °F -2.2 °F 92% 30.32 in 10.0 mi East 6.9 mph - N/A   Clear
9:15 PM 1.4 °F -11.3 °F -2.2 °F 85% 30.31 in 10.0 mi ESE 6.9 mph - N/A   Clear
9:35 PM 1.4 °F -12.5 °F -0.4 °F 92% 30.30 in 10.0 mi ESE 8.1 mph - N/A   Clear
9:55 PM 1.4 °F -12.5 °F -0.4 °F 92% 30.29 in 10.0 mi SE 8.1 mph - N/A   Scattered Clouds
10:15 PM 3.2 °F -10.3 °F -0.4 °F 85% 30.29 in 10.0 mi SSE 8.1 mph - N/A   Partly Cloudy
10:35 PM 3.2 °F -12.2 °F -0.4 °F 85% 30.26 in 10.0 mi ESE 10.4 mph - N/A   Clear
10:55 PM 3.2 °F -10.3 °F -0.4 °F 85% 30.25 in 10.0 mi SE 8.1 mph - N/A   Clear
11:15 PM 3.2 °F -10.3 °F -0.4 °F 85% 30.24 in 10.0 mi SE 8.1 mph - N/A   Clear
11:35 PM 5.0 °F -8.1 °F -0.4 °F 78% 30.24 in 10.0 mi SE 8.1 mph - N/A   Clear
11:55 PM 5.0 °F -9.1 °F 1.4 °F 85% 30.24 in 10.0 mi SE 9.2 mph - N/A   Clear